Colby, KS

4:51 PM CDT on April 25, 2017 (GMT -0500)
Shaltz

Weather History for KCBK - June, 2013

Change the Weather History Date:

Monday, June 24, 2013

  Actual Average (KGLD) Record (KGLD)
Temperature  
Mean Temperature 78 °F -  
Max Temperature 95 °F 88 °F 109 °F (2012)
Min Temperature 62 °F 58 °F 42 °F (1940)
Cooling Degree Days 14    
Growing Degree Days 28 (Base 50)    
Moisture  
Dew Point 59 °F    
Average Humidity 55    
Maximum Humidity 88    
Minimum Humidity 19    
Precipitation  
Precipitation 0.00 in - - ()
Sea Level Pressure  
Sea Level Pressure 29.81 in    
Wind  
Wind Speed 11 mph (SSE)    
Max Wind Speed 24 mph    
Max Gust Speed 32 mph    
Visibility 10 miles    
Events      
Averages and records for this station are not official NWS values.
T = Trace of Precipitation, MM = Missing Value Source: NWS Daily Summary

Daily Weather History Graph

Daily Weather History Graph

Search for Another Location

Airport or City:

Trip Planner

Search our weather history database for the weather conditions in past years. The results will help you decide how hot, cold, wet, or windy it might be!

Date:

Astronomy

Jun. 24, 2013 Rise Set
Actual Time 6:18 AM CDT 9:15 PM CDT
Civil Twilight 5:45 AM CDT 9:47 PM CDT
Nautical Twilight 5:04 AM CDT 10:28 PM CDT
Astronomical Twilight 4:17 AM CDT 11:16 PM CDT
Moon 10:19 PM CDT (6/24) 7:47 AM CDT (6/24)
Length of Visible Light 16h 01m
Length of Day
14h 56m
Full, 98% of the Moon is Illuminated
Jun 24
Full
Jun 29
Last Quarter
Jul 8
New
Jul 15
First Quarter
Jul 22
Full

Hourly Weather History & Observations

Time (CDT) Temp. Heat Index Dew Point Humidity Pressure Visibility Wind Dir Wind Speed Gust Speed Precip Events Conditions
12:15 AM 71.6 °F - 68.0 °F 88% 29.81 in 10.0 mi East 11.5 mph - N/A   Clear
12:35 AM 71.6 °F - 66.2 °F 83% 29.82 in 10.0 mi ENE 9.2 mph - N/A   Clear
12:55 AM 71.6 °F - 66.2 °F 83% 29.84 in 10.0 mi East 6.9 mph - N/A   Clear
1:15 AM 71.6 °F - 66.2 °F 83% 29.87 in 10.0 mi Calm Calm - N/A   Clear
1:35 AM 77.0 °F - 66.2 °F 69% 29.88 in 10.0 mi NW 9.2 mph - N/A   Scattered Clouds
1:55 AM 73.4 °F - 66.2 °F 78% 29.87 in 10.0 mi North 13.8 mph 17.3 mph N/A   Clear
2:15 AM 69.8 °F - 62.6 °F 78% 29.86 in 10.0 mi NNE 11.5 mph - N/A   Clear
2:35 AM 68.0 °F - 62.6 °F 83% 29.85 in 10.0 mi NNE 15.0 mph - N/A   Clear
2:55 AM 66.2 °F - 59.0 °F 78% 29.87 in 10.0 mi NNE 10.4 mph - N/A   Clear
3:15 AM 64.4 °F - 59.0 °F 83% 29.91 in 10.0 mi NNW 15.0 mph - N/A   Scattered Clouds
3:35 AM 62.6 °F - 59.0 °F 88% 29.90 in 10.0 mi North 11.5 mph 20.7 mph N/A   Mostly Cloudy
3:55 AM 64.4 °F - 59.0 °F 83% 29.91 in 10.0 mi North 12.7 mph - N/A   Overcast
4:15 AM 64.4 °F - 59.0 °F 83% 29.92 in 10.0 mi North 10.4 mph - N/A   Overcast
4:35 AM 64.4 °F - 59.0 °F 83% 29.89 in 10.0 mi NNE 10.4 mph - N/A   Mostly Cloudy
4:55 AM 64.4 °F - 59.0 °F 83% 29.89 in 10.0 mi NE 10.4 mph - N/A   Scattered Clouds
5:15 AM 62.6 °F - 59.0 °F 88% 29.89 in 10.0 mi NNE 8.1 mph - N/A   Mostly Cloudy
5:35 AM 64.4 °F - 59.0 °F 83% 29.91 in 10.0 mi North 3.5 mph - N/A   Mostly Cloudy
5:55 AM 64.4 °F - 59.0 °F 83% 29.91 in 10.0 mi NE 6.9 mph - N/A   Overcast
6:15 AM 62.6 °F - 59.0 °F 88% 29.90 in 10.0 mi NE 5.8 mph - N/A   Mostly Cloudy
6:35 AM 62.6 °F - 59.0 °F 88% 29.89 in 10.0 mi ENE 6.9 mph - N/A   Scattered Clouds
6:55 AM 62.6 °F - 59.0 °F 88% 29.88 in 10.0 mi East 5.8 mph - N/A   Clear
7:15 AM 62.6 °F - 59.0 °F 88% 29.87 in 10.0 mi East 5.8 mph - N/A   Clear
7:35 AM 64.4 °F - 59.0 °F 83% 29.87 in 10.0 mi East 8.1 mph - N/A   Clear
7:55 AM 68.0 °F - 59.0 °F 73% 29.86 in 10.0 mi East 8.1 mph - N/A   Clear
8:15 AM 69.8 °F - 59.0 °F 68% 29.86 in 10.0 mi ESE 10.4 mph - N/A   Clear
8:35 AM 71.6 °F - 59.0 °F 64% 29.86 in 10.0 mi ESE 12.7 mph 19.6 mph N/A   Clear
8:55 AM 73.4 °F - 59.0 °F 61% 29.85 in 10.0 mi East 13.8 mph 18.4 mph N/A   Clear
9:15 AM 73.4 °F - 59.0 °F 61% 29.85 in 10.0 mi ESE 13.8 mph - N/A   Clear
9:35 AM 77.0 °F - 62.6 °F 61% 29.85 in 10.0 mi ESE 17.3 mph 20.7 mph N/A   Clear
9:55 AM 77.0 °F - 62.6 °F 61% 29.84 in 10.0 mi ESE 16.1 mph - N/A   Clear
10:15 AM 78.8 °F - 62.6 °F 57% 29.84 in 10.0 mi SE 15.0 mph 20.7 mph N/A   Clear
10:35 AM 80.6 °F 81.8 °F 62.6 °F 54% 29.84 in 10.0 mi SSE 16.1 mph - N/A   Clear
10:55 AM 80.6 °F 81.8 °F 62.6 °F 54% 29.83 in 10.0 mi South 11.5 mph - N/A   Clear
11:15 AM 80.6 °F 81.8 °F 62.6 °F 54% 29.82 in 10.0 mi SE 12.7 mph - N/A   Clear
11:35 AM 82.4 °F 83.9 °F 64.4 °F 54% 29.82 in 10.0 mi SSE 13.8 mph 17.3 mph N/A   Clear
11:55 AM 84.2 °F 85.6 °F 64.4 °F 51% 29.81 in 10.0 mi SSE 15.0 mph 23.0 mph N/A   Clear
12:15 PM 84.2 °F 85.6 °F 64.4 °F 51% 29.81 in 10.0 mi SSE 11.5 mph 19.6 mph N/A   Clear
12:35 PM 86.0 °F 87.3 °F 64.4 °F 48% 29.81 in 10.0 mi South 11.5 mph 17.3 mph N/A   Clear
12:55 PM 87.8 °F 88.5 °F 62.6 °F 43% 29.81 in 7.0 mi South 10.4 mph - N/A   Clear
1:15 PM 87.8 °F 88.5 °F 62.6 °F 43% 29.80 in 10.0 mi SSE 8.1 mph - N/A   Clear
1:35 PM 91.4 °F 91.4 °F 60.8 °F 36% 29.79 in 10.0 mi South 10.4 mph - N/A   Clear
1:55 PM 91.4 °F 91.4 °F 60.8 °F 36% 29.78 in 10.0 mi SSW 11.5 mph 18.4 mph N/A   Clear
2:15 PM 93.2 °F 92.6 °F 59.0 °F 32% 29.77 in 10.0 mi SW 10.4 mph 16.1 mph N/A   Clear
2:35 PM 95.0 °F 94.4 °F 59.0 °F 30% 29.76 in 10.0 mi WSW 13.8 mph 20.7 mph N/A   Clear
2:55 PM 93.2 °F 92.6 °F 59.0 °F 32% 29.75 in 10.0 mi SW 11.5 mph 17.3 mph N/A   Clear
3:15 PM 93.2 °F 92.6 °F 59.0 °F 32% 29.75 in 10.0 mi SW 10.4 mph - N/A   Clear
3:35 PM 93.2 °F 93.3 °F 60.8 °F 34% 29.75 in 10.0 mi SSW 9.2 mph - N/A   Clear
3:55 PM 91.4 °F 90.7 °F 59.0 °F 34% 29.74 in 10.0 mi WSW 6.9 mph - N/A   Clear
4:15 PM 91.4 °F 91.4 °F 60.8 °F 36% 29.75 in 10.0 mi WSW 8.1 mph - N/A   Clear
4:35 PM 93.2 °F 92.6 °F 59.0 °F 32% 29.75 in 10.0 mi SW 12.7 mph 17.3 mph N/A   Clear
4:55 PM 93.2 °F 91.3 °F 55.4 °F 28% 29.75 in 10.0 mi SW 13.8 mph 19.6 mph N/A   Clear
5:15 PM 91.4 °F 89.1 °F 53.6 °F 28% 29.74 in 10.0 mi SW 11.5 mph - N/A   Clear
5:35 PM 95.0 °F - 51.8 °F 23% 29.73 in 10.0 mi SW 13.8 mph 17.3 mph N/A   Clear
5:55 PM 95.0 °F - 51.8 °F 23% 29.71 in 10.0 mi WSW 11.5 mph - N/A   Clear
6:15 PM 91.4 °F - 46.4 °F 21% 29.71 in 10.0 mi SW 9.2 mph - N/A   Clear
6:35 PM 91.4 °F - 44.6 °F 20% 29.70 in 10.0 mi WSW 12.7 mph 20.7 mph N/A   Clear
6:55 PM 95.0 °F - 46.4 °F 19% 29.70 in 10.0 mi WSW 13.8 mph 18.4 mph N/A   Clear
7:15 PM 91.4 °F - 46.4 °F 21% 29.70 in 10.0 mi SW 9.2 mph - N/A   Clear
7:35 PM 91.4 °F - 48.2 °F 23% 29.69 in 10.0 mi SSW 5.8 mph - N/A   Clear
7:55 PM 89.6 °F - 50.0 °F 26% 29.70 in 10.0 mi SSW 10.4 mph - N/A   Clear
8:15 PM 89.6 °F - 48.2 °F 24% 29.71 in 10.0 mi South 9.2 mph - N/A   Clear
8:35 PM 89.6 °F - 46.4 °F 22% 29.71 in 10.0 mi South 12.7 mph 16.1 mph N/A   Clear
8:55 PM 87.8 °F - 50.0 °F 27% 29.72 in 10.0 mi South 15.0 mph 19.6 mph N/A   Clear
9:15 PM 86.0 °F 84.2 °F 53.6 °F 33% 29.72 in 10.0 mi South 13.8 mph - N/A   Clear
9:35 PM 84.2 °F 83.0 °F 55.4 °F 37% 29.74 in 10.0 mi SSE 19.6 mph 28.8 mph N/A   Clear
9:55 PM 80.6 °F 81.1 °F 59.0 °F 48% 29.75 in 10.0 mi SSE 23.0 mph 32.2 mph N/A   Clear
10:15 PM 78.8 °F - 62.6 °F 57% 29.76 in 10.0 mi SSE 21.9 mph 27.6 mph N/A   Clear
10:35 PM 78.8 °F - 64.4 °F 61% 29.77 in 10.0 mi SSE 21.9 mph 27.6 mph N/A   Clear
10:55 PM 78.8 °F - 64.4 °F 61% 29.78 in 10.0 mi SSE 18.4 mph 27.6 mph N/A   Clear
11:15 PM 78.8 °F - 64.4 °F 61% 29.78 in 10.0 mi SSE 24.2 mph 29.9 mph N/A   Clear
11:35 PM 78.8 °F - 62.6 °F 57% 29.78 in 10.0 mi SSE 20.7 mph 26.5 mph N/A   Clear
11:55 PM 77.0 °F - 62.6 °F 61% 29.78 in 10.0 mi SE 18.4 mph 25.3 mph N/A   Clear